DMSP 5D-3 F16 (USA 172)

Last updated on Sun Oct 06 2024 00:02:17 GMT+0000 (Coordinated Universal Time)

1 28054U 03048A 24279.54039882 .00001084 00000+0 59290-3 0 9997 2 28054 99.0235 287.0641 0008393 99.9865 13.7124 14.14141727 81892
UTC large
Height (km)
Speed (km/s)
/
Latitude / Longitude
Inclination (degrees)
Orbital Period (minutes)
Azimuth
Elevation
Range (km)
Doppler Factor

Next 0 passes for location: London (51.5072 / 0.1276)

Sorry there are no passes over London.